STARLINK-11462 [DTC] (62412 NORAD) Tracking and Keplerian Element Data

This shows tracking and keplerian element data for the satellite.

Feedback or suggestion? Click here.




ElementValue
Catalog62412
NameSTARLINK-11462 [DTC]
Epoch Orbit668
Epoch Day34.45901504
Epoch Year2025
RAAN54.8473
Inclination42.9967
Eccentricity0.0001138
Argument of Perigee325.1493
Mean Anonmoly34.9303
Mean Motion15.77853715
Decay Rate3.65E-06
L11 62412U 24249D 25034.45901504 .00000365 00000+0 49584-5 0 9996
L22 62412 42.9967 54.8473 0001138 325.1493 34.9303 15.77853715 6686



Live tracking and technical data element details for STARLINK-11462 [DTC] (NORAD 62412). STARLINK-11462 [DTC] can be tracked NOW for your location showing map with azimuth and elevation plus other details from your city location.







IsCatalogInMostPopularTable: catalog: 62412, numindb: 34
Update: records affected: 1



GetName: 62412 STARLINK-11462 [DTC]

Hit Count: updated at: Sun, 18 May 2025 22:59:52 GMT